Terminal Aerodrome Forecast
Issued by NWS

Home | Current Version | Previous Version | Text Only | Print | Product List | Glossary On
Versions: 1 2 3 4 5 6 7 8 9 10 11 12 13
266
FTUS45 KRIW 241128
TAFBPI
TAF
KBPI 241128Z 2412/2512 25008KT 6SM -SN SCT015 BKN035
     FM241600 30008KT P6SM VCSH BKN035
     FM242100 28011KT P6SM SCT035
     FM250300 33007KT P6SM SCT070=

USA.gov is the U.S. government's official web portal to all federal, state and local government web resources and services.